Starlink 5148

operational
NORAD ID: 53978 Int'l Des: 2022-125 Owner: SPXS Country: US Constellation: starlink
LEOCIRCULAR

About Starlink 5148

Description loading...

Live Position

Loading 3D Globe...

Upcoming Passes

Altitude History

Altitude vs Time

uPlot chart will show altitude changes over time

Two-Line Element Set

1 53978U 22125Q 25348.10858839 .00000627 00000-0 57486-4 0 9997
2 53978 53.2158 243.2242 0001533 93.1059 267.0108 15.08835768176476
Epoch: Dec 14, 2025 • Age: 18 hours

Current Status

Altitude 544.0 km
Velocity 7.60 km/s
Sub-Earth Point 47.37°N, 26.7°W
Launch Date Oct 5, 2022
Age 3.1 years
Type internet

Technical Details

Classification Payload
Mass 305.00 kg
Dry Mass 290.00 kg
Total Mass 305.00 kg
Length 0.20 m
Diameter 2.80 m
Span 9.00 m
Shape Box + pan
Manufacturer SPXS
Bus Type Starlink
Phase Status In Orbit
Owner/State SPXS/US

Large Constellations

Loading constellations...